Location: Holbach
(51.5399°N, 10.6036°E)
Time: 03:31:52
(UTC+00:00)

SL-14 R/B - Pass Details

Date: 18 September 2020
Orbit: 519 x 554 km, 82.4° (Epoch: 22 October)

Event Time Altitude Azimuth Distance (km) Brightness Sun altitude
Rises 19:10:13 0° 356° (N) 2,671 7.2 -16.7°
Reaches altitude 10° 19:12:34 10° 8° (N) 1,782 6.1 -17.1°
Maximum altitude 19:16:03 30° 71° (ENE) 972 4.2 -17.6°
Enters shadow 19:16:03 30° 71° (ENE) 972 4.2 -17.6°
